Regional Weather Roundup
Issued by NWS

Home | Current Version | Previous Version | Graphics & Text | Print | Product List | Glossary On
Versions: 1 2 3 4 5 6 7 8 9 10 11 12 13 14 15 16 17 18 19 20 21 22 23 24 25 26 27 28 29 30 31 32 33 34 35 36 37 38 39 40 41 42 43 44 45 46 47 48 49 50
000
ASUS43 KMKX 251500
RWRWI

WISCONSIN REGIONAL WEATHER ROUNDUP
NATIONAL WEATHER SERVICE MILWAUKEE/SULLIVAN WI
1000 AM CDT SAT MAR 25 2017

NOTE: "FAIR" INDICATES FEW OR NO CLOUDS BELOW 12,000 FEET WITH NO
SIGNIFICANT WEATHER AND/OR OBSTRUCTIONS TO VISIBILITY.

WIZ001-002-006>008-014>016-023>028-251600-
NORTHWEST WISCONSIN

CITY           SKY/WX    TMP DP  RH WIND       PRES   REMARKS
SUPERIOR ARPT  CLOUDY    34  30  86 E15       30.29S WCI  24
ASHLAND        CLOUDY    35  30  82 NE12      30.29S WCI  27
HAYWARD        CLOUDY    37  28  70 E10G18    30.23R WCI  30
SIREN          CLOUDY    35  30  82 E6        30.22S WCI  30
CUMBERLAND     CLOUDY    34  30  86 E13G21    30.20S WCI  25
RICE LAKE      CLOUDY    36  31  83 E8G18     30.22S WCI  29
CHETEK         CLOUDY    35  31  85 E8        30.21S WCI  29
LADYSMITH      CLOUDY    35  31  85 E12G17    30.23S WCI  27
EAU CLAIRE     CLOUDY    36  31  82 E15G26    30.19S WCI  27
MENOMONIE      CLOUDY    37  32  82 NE12      30.20S WCI  29
NEW RICHMOND   CLOUDY    36  30  80 E12       30.19S WCI  27
OSCEOLA        CLOUDY    37  31  80 E13G21    30.23R WCI  28
$$

WIZ003>005-009-010-017-018-251600-
NORTH CENTRAL WISCONSIN

CITY           SKY/WX    TMP DP  RH WIND       PRES   REMARKS
MANITOWISH WTR CLOUDY    32  32 100 E7        30.24R WCI  26
ARBOR VITAE    CLOUDY    36  32  85 E6G16     30.23R WCI  31
WOODRUFF       CLOUDY    36  32  85 E6G16     30.23R WCI  31
RHINELANDER    CLOUDY    34  30  85 E14       30.24R WCI  25
EAGLE RIVER    CLOUDY    32  31  93 E10       30.25R WCI  24
LAND O LAKES   CLOUDY    32  31  95 E6        30.27R WCI  27
PHILLIPS       CLOUDY    33  30  89 E10G17    30.22R WCI  25
TOMAHAWK       CLOUDY    33  28  81 E14G22    30.24R WCI  24
MEDFORD        CLOUDY    33  30  88 E18       30.18F WCI  22
MERRILL        CLOUDY    34  31  86 E14G20    30.23R WCI  25
$$

WIZ029-030-035-036-043>047-251600-
CENTRAL WISCONSIN

CITY           SKY/WX    TMP DP  RH WIND       PRES   REMARKS
WAUSAU         CLOUDY    35  31  85 E14G22    30.20S WCI  26
MOSINEE        CLOUDY    34  34 100 NE17G32   30.20F WCI  23
MARSHFIELD     CLOUDY    35  31  85 E15G23    30.18R WCI  25
STEVENS POINT  CLOUDY    34  32  92 NE15G25   30.19S WCI  24
WAUPACA        CLOUDY    38  34  87 NE12      30.21S WCI  30
WAUTOMA        CLOUDY    36  34  92 NE16G28   30.18F WCI  26
WISC RAPIDS    CLOUDY    37  34  89 E17G25    30.19R WCI  27
CAMP DOUGLAS   NOT AVBL
$$

WIZ011>013-019>022-031-037>040-048>050-251600-
NORTHEAST WISCONSIN

CITY           SKY/WX    TMP DP  RH WIND       PRES   REMARKS
ANTIGO         CLOUDY    32  31  95 E12       30.22S WCI  23
SHAWANO        CLOUDY    37  33  85 E15       30.25S WCI  28
OCONTO         CLOUDY    35  32  88 NE9G17    30.27S WCI  28
STURGEON BAY   CLOUDY    36  32  85 NE14G22   30.27S WCI  27
GREEN BAY      CLOUDY    37  36  96 NE16      30.24R WCI  28
MANITOWOC      NOT AVBL
APPLETON       CLOUDY    36  36 100 NE16G23   30.19S FOG     WCI  26
CLINTONVILLE   CLOUDY    36  32  87 E15       30.23S WCI  26
OSHKOSH        CLOUDY    37  34  89 NE15G23   30.17F WCI  28
$$

WIZ032>034-041-042-053>061-251600-
SOUTHWEST WISCONSIN

CITY           SKY/WX    TMP DP  RH WIND       PRES   REMARKS
LA CROSSE      CLOUDY    39  34  82 NE14G20   30.13S WCI  31
SPARTA         CLOUDY    37  34  90 E16G22    30.15S WCI  27
VIROQUA        CLOUDY    35  35  99 NE17      30.08F WCI  25
BOSCOBEL       CLOUDY    39  35  86 E10       30.09S WCI  32
PRAIRIE DU CHI CLOUDY    38  35  90 NE8       30.06S WCI  32
PLATTEVILLE    CLOUDY    37  37 100 NE23      30.03F WCI  26
$$

WIZ056-057-062-063-064-067-068-251600-
SOUTH CENTRAL WISCONSIN

CITY           SKY/WX    TMP DP  RH WIND       PRES   REMARKS
REEDSBURG      CLOUDY    35  35 100 NE14G20   30.12F FOG     WCI  25
BARABOO/DELLS  CLOUDY    35  34  97 NE16G23   30.12S FOG     WCI  25
LONE ROCK      CLOUDY    38  35  89 NE13G20   30.09F FOG     WCI  30
MINERAL POINT  DRIZZLE   37  37 100 NE17G26   30.04R WCI  28
MADISON        CLOUDY    37  35  92 NE18      30.10S WCI  27
MIDDLETON      CLOUDY    38  37  95 NE14G21   30.10S WCI  30
WATERTOWN      CLOUDY    37  37 100 NE15      30.11F WCI  28
MONROE         CLOUDY    36  36 100 NE23G32   30.03F FOG     WCI  24
JANESVILLE     CLOUDY    39  39 100 NE18G24   30.06F WCI  30
$$

WIZ051-052-058>065-066-070>072-251600-
SOUTHEAST WISCONSIN

CITY           SKY/WX    TMP DP  RH WIND       PRES   REMARKS
MILWAUKEE      LGT RAIN  39  36  89 NE15      30.13S WCI  31
WAUKESHA       CLOUDY    36  36 100 E16G25    30.13F FOG     WCI  26
MILWAUKEE/TIMM CLOUDY    37  34  87 NE14G23   30.15F WCI  29
RACINE         LGT RAIN  39  36  89 NE18G25   30.13F WCI  30
KENOSHA        CLOUDY    39  37  92 NE22G28   30.10S WCI  29
FOND DU LAC    CLOUDY    38  33  82 E16G24    30.17F WCI  29
SHEBOYGAN      CLOUDY    37  34  89 NE20      30.18F WCI  27
WEST BEND      CLOUDY    36  36 100 NE18      30.15F FOG     WCI  25
JUNEAU         CLOUDY    36  35  96 NE15G22   30.14F WCI  26
$$

LSZ147-162-251600-
LAKE SUPERIOR

STATION/POSITION TIME  TEMP    WIND        PRES    WAVE
                       AIR SEA DIR/SP/G            HT/PER
                 (UTC) (F)     (DEG/KT/KT) (MB)    (FT/S)
DEVILS ISLAND    1400   33      70/ 19/ 21 1027.7F
PORT WING        1440   35      60/ 10/ 14 1026.1S
SAXON HARBOR     1440   34      50/ 12/ 15 1025.4F
$$

LMZ867-665-643>646-251600-
LAKE MICHIGAN

STATION/POSITION TIME  TEMP    WIND        PRES    WAVE
                       AIR SEA DIR/SP/G            HT/PER
                 (UTC) (F)     (DEG/KT/KT) (MB)    (FT/S)
CHAMBERS ISLAND  1440   35      50/ 12/ 17 1025.4R
NORTHPORT PIER   1440   35      70/ 15/ 19 1026.1R
SISTER BAY       1350   36     100/ 13/ 22   N/A
KEWAUNEE LAKESHO 1430   37      60/ 13/ 18 1023.4R
SHEBOYGAN LAKESH 1400   36      40/ 18/ 20 1023.0R
PORT WASHINGTON  1430   37      30/ 13/ 19 1022.4F
MILWAUKEE LAKESH 1430   37      30/ 17/ 19   N/A
KENOSHA   LAKESH 1400   38      20/ 19/ 23 1019.3
$$

TC  - TEMPERATURE IN CELSIUS
VSB - VISIBILITY IN STATUTE MILES
WCI - WIND CHILL INDEX
HX  - HEAT INDEX




USA.gov is the U.S. government's official web portal to all federal, state and local government web resources and services.